Location: *
(46.3500°N, 10.9000°E)
Time: 22:13:37
(UTC+00:00)

A-11 Canister half - Pass Details

Date: 23 April 2021
Orbit: 1526 x 1682 km, 47.3° (Epoch: 13 May)

Event Time Altitude Azimuth Distance (km) Brightness Sun altitude
Rises 18:25:37 0° 287° (WNW) 4,924 14.7 -2.6°
Reaches altitude 10° 18:28:47 10° 286° (WNW) 3,943 13.2 -3.1°
Maximum altitude 18:38:55 76° 203° (SSW) 1,726 9.3 -4.7°
Drops below altitude 10° 18:48:58 10° 121° (ESE) 3,909 10.4 -6.3°
Enters shadow 18:49:50 - 120° (ESE) 4,178 10.6 -6.4°
Sets 18:52:05 0° 119° (ESE) 4,880 - -6.7°
